Simultaneous Nadir Overpasses (SNOs) Predictions

Prediction of SNOs between GOES-15 and LANDSAT-8 Satellite Orbit:

Table of predicted SNOs for the next 14.0 days since TLE Epoch: 6/4/2022
Index Date Time (GOES-15) GOES-15 Lat,Lon LANDSAT-8 Lat,Lon Distance(km) Time Diff (sec)
1 06/05/2022 06:27:41 0.21,-128.12 1.01,-124.32 432.18 80
2 06/05/2022 18:51:37 -0.20,-128.16 0.08,-129.48 149.72 80
3 06/07/2022 18:36:48 -0.21,-128.21 -0.59,-126.53 191.04 80
4 06/08/2022 07:00:52 0.19,-128.20 -0.55,-131.72 400.23 80
5 06/10/2022 06:48:42 0.19,-128.24 0.06,-128.76 60.00 80
6 06/12/2022 06:33:53 0.20,-128.27 0.75,-125.82 279.49 80
7 06/12/2022 18:57:48 -0.18,-128.30 0.40,-130.97 303.31 80
8 06/14/2022 18:42:58 -0.19,-128.32 -0.23,-128.01 35.09 80
9 06/16/2022 18:30:48 -0.20,-128.34 -0.87,-125.06 372.65 80
10 06/17/2022 06:54:53 0.17,-128.33 -0.21,-130.26 218.84 80
